Regional Weather Roundup
Issued by NWS Kansas City/Pleasant Hill, MO

Home | Current Version | Previous Version | Graphics & Text | Print | Product List | Glossary Off
Versions: 1 2 3 4 5 6 7 8 9 10 11 12 13 14 15 16 17 18 19 20 21 22 23 24 25 26 27 28 29 30 31 32 33 34 35 36 37 38 39 40 41 42 43 44 45 46 47 48 49 50

000
ASUS43 KEAX 201404
RWREAX

WEATHER ROUNDUP FOR EASTERN KANSAS AND NORTHWEST MISSOURI
NATIONAL WEATHER SERVICE KANSAS CITY/PLEASANT HILL MO
900 AM CDT SAT SEP 20 2014

KSZ040-057-103>105-MOZ028-029-037-043-201500-
...KANSAS CITY METROPOLITAN AREA...

CITY           SKY/WX    TMP DP  RH WIND       PRES   REMARKS
K.C. INTL      MOSUNNY   71  69  93 S12       29.98F FOG
K.C. DOWNTOWN  SUNNY     74  68  81 SW10      29.98S
LEES SUMMIT    SUNNY     71  68  90 SW8       30.01S FOG
OLATHE - IXD   SUNNY     71  68  90 SW10      30.01R FOG
OLATHE - OJC   MOSUNNY   71  68  90 S6        30.00S FOG
LAWRENCE       SUNNY     72  68  87 SW8       29.99S FOG

$$

MOZ001>008-011>017-020>025-030>033-038>040-044>046-053-054-201500-
...NORTHERN AND CENTRAL MISSOURI...

CITY           SKY/WX    TMP DP  RH WIND       PRES   REMARKS
ST. JOSEPH     PTSUNNY   70  68  93 S7        29.97F FOG
MOSBY          MOSUNNY   70  70 100 CALM      29.99R FOG
WHITEMAN AFB   SUNNY     70  67  92 SW10      30.02R
CLINTON        SUNNY     72  70  94 CALM      30.03S FOG
SEDALIA        MOSUNNY   73  67  81 SW10      30.03R HAZE
WARSAW         NOT AVBL
MARSHALL       MOSUNNY   72  70  94 SW7       30.02S FOG
CHILLICOTHE      N/A     70  67  90 S5        29.98F
MOBERLY        MOSUNNY   70  64  83 SW7       30.02S
KIRKSVILLE     CLOUDY    67  65  93 S8        29.99F FOG

$$

MOZ041-047>049-056>058-063>065-088>090-097-201500-
...EASTERN AND SOUTHERN MISSOURI...

CITY           SKY/WX    TMP DP  RH WIND       PRES   REMARKS
ST. LOUIS INTL PTSUNNY   72  64  76 SW12G23   30.04R
SPIRIT OF STL  MOSUNNY   70  65  84 W7        30.04R
COLUMBIA       SUNNY     70  67  90 SW9       30.03S
JEFFERSON CITY SUNNY     70  65  84 SW7       30.03R
MEXICO         SUNNY    N/A N/A N/A SW7       30.03R
ROLLA          SUNNY     70  65  84 SW10      30.06R
LEBANON        SUNNY     72  66  83 SW7       30.08S
OSAGE BEACH    SUNNY     70  64  83 S7        30.05S
SPRINGFIELD    SUNNY     70  67  90 S10       30.07R
BRANSON        PTSUNNY   72  70  94 CALM      30.10R
NEVADA         MOSUNNY   70  68  94 S8        30.05R FOG
JOPLIN         MOSUNNY   72  69  90 S9        30.05R
WEST PLAINS    SUNNY     71  66  84 S5        30.11R

$$

IAZ060-094-KSZ022-034>040-054-083-096-NEZ052-066-093-201500-
...KANSAS...SOUTHEAST NEBRASKA AND IOWA...

CITY           SKY/WX    TMP DP  RH WIND       PRES   REMARKS
TOPEKA         SUNNY     73  70  90 VRB5      29.98F
MANHATTAN      SUNNY     74  68  81 SW14G20   29.95F
EMPORIA        SUNNY     72  68  87 S8        30.01R
CHANUTE        CLOUDY    70  69  97 S10       30.03R FOG
WICHITA        SUNNY     71  67  87 S8        30.00R FOG
OMAHA          PTSUNNY   69  64  84 S8        29.92R
LINCOLN        PTSUNNY   72  65  78 CALM      29.94R
FALLS CITY     CLOUDY    70  68  93 S9        29.94R
LAMONI         CLOUDY    66  66 100 S10       29.93F FOG
DES MOINES     CLOUDY    69  65  86 SW7       29.85F

$$



USA.gov is the U.S. government's official web portal to all federal, state and local government web resources and services.